Volver al catálogo

IRIDIUM 157

ActivoComunicacionesPO
NORAD 43251·PAYLOAD·🇺🇸 United States

Lanzado Mar 30, 2018 desde Vandenberg Space Force Base

Loading…

Próximos Pases (próximas 24 horas)

TLE

ActualizadoSource: CelesTrak SupGP

Época: Sep 14, 2026, 20:33 UTC

1 43251C 18030C   26257.85659722  .00003791  00000+0  13555-2 0  2570
2 43251  86.3913 252.9111 0002338  90.1556   2.1242 14.34213400    14

Sigue IRIDIUM 157 en tiempo real con AllMySat

Download on the App Store